Find Starlink 30936

NORAD ID: 58534 Int'l Des: 2023-192 Owner: SPXS Country: US Constellation: starlink operational
LEOCIRCULAR

Current View

Loading 3D Globe...

About Starlink 30936

Starlink 30936 (NORAD 58534) is a starlink constellation satellite (v2 mini) launched Dec 8, 2023 by SPXS of US. It operates in LEO, CIRCULAR orbit with a mass of 730.00 kg.

About Starlink 30936

Description loading...

Upcoming Passes

Passes for default location (London). Set your location on the main map for personalized predictions.

Altitude History

Loading altitude history...

Two-Line Element Set

1 58534U 23192D 26171.37334762 -.00000286 00000-0 25479-5 0 9993
2 58534 53.1613 295.3824 0001193 94.2822 265.8315 15.31708127141854
Epoch: Jun 20, 2026 • Age: 15 hours

Current Status

Altitude 473.1 km
Velocity 7.63 km/s
Sub-Earth Point 37.69°N, 173.89°E
Launch Date Dec 8, 2023
Age 2.5 years
Type internet

Technical Details

Classification Payload
Mass 730.00 kg
Dry Mass 700.00 kg
Total Mass 730.00 kg
Length 0.30 m
Diameter 4.10 m
Span 29.00 m
Shape Box + pan
Manufacturer SPXS
Bus Type Starlink V2M
Phase Status In Orbit
Owner/State SPXS/US

Most Searched